Regional Weather Roundup
Issued by NWS

Home | Current Version | Previous Version | Text Only | Print | Product List | Glossary Off
Versions: 1 2 3 4 5 6 7 8 9 10 11 12 13 14 15 16 17 18 19 20 21 22 23 24 25 26 27 28 29 30 31 32 33 34 35 36 37 38 39 40 41 42 43 44 45 46 47 48 49 50

875
ASUS43 KIND 312309
RWRIN

WEATHER ROUNDUP FOR INDIANA
NATIONAL WEATHER SERVICE INDIANAPOLIS IN
700 PM EDT TUE MAY 31 2016

NOTE: "FAIR" INDICATES FEW OR NO CLOUDS BELOW 12,000 FEET WITH NO
SIGNIFICANT WEATHER AND/OR OBSTRUCTIONS TO VISIBILITY.

* - STATION DOES NOT REPORT WEATHER SUCH AS PRECIPITATION OR FOG.

+ - STATION NOT QUALITY CONTROLLED BY THE NATIONAL WEATHER SERVICE.
    USE DATA WITH CAUTION...ESPECIALLY DEWPOINT AND RELATIVE
    HUMIDITY OBSERVATIONS.

INZ001>003-010>013-019-020-010000-
NORTHWEST INDIANA

CITY           SKY/WX    TMP DP  RH WIND       PRES   REMARKS
GARY /AIRPORT/ CLOUDY    68  68 100 NW8       30.02R
KNOX *+        CLOUDY    68  59  73 W7        30.00S
LA PORTE +     CLOUDY    70  66  86 N3        30.03R
MICHIGAN CITY+ LGT RAIN  64  64 100 CALM      30.04R
MONTICELLO +   PTSUNNY   72  57  59 NE7       29.93F
RENSSELAER +   PTSUNNY   73  61  64 N8        29.95F

$$

LMZ046-743>745-010000-
SOUTHERN LAKE MICHIGAN

STATION/POSITION TIME  TEMP    WIND        PRES    WAVE
                       AIR SEA DIR/SP/G            HT
                 (UTC) (F)     (DEG/KT/KT) (MB)    (FT)
BURNS HARBOR     2200   65     320/ 13     1015.9R
MICHIGAN CITY    2200   74      50/  6/  6   N/A
5NW MICH CITY    2300   63 62  300/ 14/ 16   N/A     1

$$

INZ004-005-014>016-021>024-010000-
NORTH CENTRAL INDIANA

CITY           SKY/WX    TMP DP  RH WIND       PRES   REMARKS
GOSHEN         CLOUDY    81  49  32 E8        29.97R
LOGANSPORT +   LGT RAIN  70  61  73 N8        29.95F
PERU/GRISSOM   CLOUDY    75  59  57 W7        29.93F
ROCHESTER +    RAIN      72  63  73 NW9       29.97S
SOUTH BEND     LGT RAIN  71  61  70 SW20G28   30.01R
WARSAW +       CLOUDY    81  54  39 N3        29.96S

$$

INZ006>009-017-018-025>027-010000-
NORTHEAST INDIANA

CITY           SKY/WX    TMP DP  RH WIND       PRES   REMARKS
ANGOLA *+        N/A     84  48  28 E14       29.98F
AUBURN +       SUNNY     82  45  26 E12       29.98S
FORT WAYNE     MOSUNNY   83  50  31 E15       29.96F
HUNTINGTON +   SUNNY    N/A N/A N/A E7        29.94F

$$

INZ028-029-035-036-043>045-051>053-010000-
WEST CENTRAL INDIANA

CITY           SKY/WX    TMP DP  RH WIND       PRES   REMARKS
CRAWFORDSVL +  SUNNY     85  53  33 S10       29.92F
GREENCASTLE +  SUNNY     82  63  51 S5        29.93F
LAFAYETTE      CLOUDY    77  59  53 NE13      29.92S
TERRE HAUTE    SUNNY     84  56  38 S9        29.91F

$$

INZ030>032-037>040-046>048-054>057-064-065-010000-
CENTRAL INDIANA

CITY           SKY/WX    TMP DP  RH WIND       PRES   REMARKS
CP ATTERBURY + MOSUNNY   81  59  47 CALM      29.93F
COLUMBUS       MOSUNNY   84  57  39 CALM      29.93F
FISHERS *+     CLOUDY    82  61  47 CALM      29.94
FRANKFORT +      N/A     78  42  27 NE10      29.96S
GREENWOOD *+   SUNNY     82  57  42 E3        29.95
INDIANAPOLIS   MOSUNNY   82  58  43 SE10      29.93F
-EAGLE CREEK   SUNNY     84  57  39 SE8       29.93F
KOKOMO *+      CLOUDY    77  57  50 W10       29.95R
MARION +       CLOUDY    85  53  32 E9        29.94F
SHELBYVILLE    MOSUNNY   84  64  50 E3        29.93F
ZIONSVILLE +   CLOUDY    74  62  67 NE9       29.95F

$$

INZ033-034-041-042-049-050-058-059-010000-
EAST CENTRAL INDIANA

CITY           SKY/WX    TMP DP  RH WIND       PRES   REMARKS
MUNCIE         LGT RAIN  79  62  56 W6        29.95S

$$

INZ060-061-067>069-081>083-085>088-010000-
SOUTHWEST INDIANA

CITY           SKY/WX    TMP DP  RH WIND       PRES   REMARKS
EVANSVILLE     PTSUNNY   85  59  41 CALM      29.89F
HUNTINGBURG *+ SUNNY     84  63  48 SE7       29.92S
WASHINGTON +   SUNNY     85  59  40 S9        29.90F

$$

INZ062-063-066-070>080-084-089>092-010000-
SOUTH CENTRAL AND SOUTHEAST INDIANA

CITY           SKY/WX    TMP DP  RH WIND       PRES   REMARKS
BEDFORD +      SUNNY     84  66  54 SE3       29.92F
BLOOMINGTON    SUNNY     85  54  34 VRB5      29.93F
MADISON *+     MOSUNNY   84  55  37 SE6       29.96S
NORTH VERNON + MOSUNNY   86  61  42 CALM      29.94F
SEYMOUR +      SUNNY     88  57  35 SE6       29.93S

$$





USA.gov is the U.S. government's official web portal to all federal, state and local government web resources and services.